Wind_Speed
10 9 8 8 7 7 8 9 9 9 8 9 10 11 13 14 14 15 15 14 14 15 15 13 12 13 13 13 12 12 12 11 11 9 8 8 9 9 9 10 13 13 13 13 13 13 12 12 14 14 14 13 12 15 17 17 16 15 15 14 14 13 13 13 13 14 15 15 15 15 15 14 13 12 12 11 11 10 9 9 8 8 8 8 8
11 10 9 9 8 8 9 10 11 10 9 10 12 14 16 17 17 17 16 16 16 17 18 16 14 14 14 13 13 12 12 11 12 11 10 9 9 10 10 10 12 13 14 14 15 16 14 13 14 15 15 15 14 14 16 18 18 17 17 16 16 15 15 15 15 15 15 16 16 16 15 15 14 14 13 13 12 11 11 10 9 9 9 9 9
12 11 10 9 9 10 10 11 11 11 11 13 16 18 19 20 20 20 20 19 19 18 19 19 17 15 15 15 14 14 14 12 11 11 11 10 9 9 10 11 12 13 15 16 17 17 18 17 16 16 16 16 16 16 16 17 18 19 19 18 18 17 16 16 16 16 17 17 17 17 17 16 15 15 15 14 14 13 12 12 11 10 10 10 10
12 12 11 11 11 12 13 13 13 14 15 17 19 21 22 22 23 24 24 23 22 20 20 20 19 16 15 15 15 15 15 14 13 12 12 12 10 9 10 11 11 13 16 17 18 18 18 19 19 19 18 17 17 17 17 17 18 19 20 20 19 19 18 18 18 18 18 18 18 18 18 17 17 16 16 15 15 14 13 13 12 11 11 11 11
12 13 13 13 14 15 15 16 17 18 20 20 21 23 23 24 24 25 26 26 24 22 20 20 20 18 17 16 15 14 13 14 14 14 14 13 12 11 11 12 12 14 17 19 19 19 19 20 21 21 20 19 19 19 19 19 18 19 20 21 21 21 20 19 19 19 19 19 19 19 19 18 18 17 17 16 16 15 15 14 13 12 12 12 11
11 12 14 15 16 17 17 18 19 20 20 21 21 22 22 22 22 23 23 24 24 23 22 21 21 20 17 16 15 13 12 13 14 14 15 15 15 13 13 14 15 16 17 19 20 20 20 21 22 22 23 22 21 20 20 20 20 20 20 22 22 22 22 21 20 20 20 20 20 20 20 19 19 18 18 17 17 16 16 15 14 13 13 12 12
11 13 14 15 15 15 15 16 16 17 18 18 19 19 19 18 18 17 17 18 20 21 21 21 20 18 17 17 16 15 16 16 15 15 16 17 18 17 16 16 18 19 19 20 21 21 21 22 22 23 24 24 24 23 22 22 21 21 21 22 23 23 23 22 22 22 21 21 21 21 20 20 20 20 19 18 18 17 16 16 15 15 14 14 13
14 14 13 13 13 14 14 14 15 16 17 17 17 18 17 17 16 15 14 14 16 17 18 18 19 19 19 19 19 18 18 19 19 18 18 17 18 19 18 17 18 20 21 22 22 22 22 23 24 24 24 24 25 25 24 23 23 22 21 22 24 24 24 24 24 23 23 23 22 22 22 21 21 21 20 20 19 18 18 17 17 16 16 15 14
12 13 13 14 15 15 15 15 15 15 15 15 16 17 17 16 16 14 13 14 16 17 18 18 19 19 20 20 19 19 19 19 19 19 18 18 18 20 20 19 18 18 20 23 24 24 23 24 25 25 26 26 26 26 26 25 25 24 23 23 24 25 25 25 25 25 25 25 24 24 24 23 23 23 22 21 21 20 19 19 18 17 17 16 16
11 13 14 15 14 14 13 13 13 13 13 14 15 15 15 15 15 13 12 14 16 18 18 19 19 18 19 19 19 19 20 19 18 18 18 19 19 19 20 20 19 17 18 21 24 26 26 25 25 26 27 27 27 27 27 27 27 26 25 24 24 25 26 26 26 26 26 26 26 26 26 25 24 24 24 23 22 22 21 20 19 19 18 17 17
10 12 13 12 11 11 12 12 12 12 12 13 14 14 14 14 14 13 12 13 15 16 17 18 18 17 17 17 16 15 15 17 18 19 19 21 21 20 20 21 22 22 22 22 23 26 28 27 27 27 28 29 29 29 28 28 28 28 27 26 25 25 26 26 26 27 27 28 28 28 27 27 26 26 25 25 24 24 23 22 21 20 19 19 18
12 12 11 11 11 12 12 12 12 12 13 13 13 13 13 13 14 14 12 12 13 15 16 17 17 16 16 14 12 11 11 11 13 16 18 20 21 22 23 23 24 25 25 25 25 26 28 30 29 29 30 30 30 29 30 29 29 29 30 29 28 27 26 26 27 27 28 28 29 29 29 28 28 27 27 26 26 25 24 24 23 22 21 20 19
12 11 10 11 12 12 12 12 13 13 13 13 12 12 12 13 14 14 14 14 14 13 15 16 17 18 18 17 15 13 11 10 10 11 13 15 16 19 21 22 24 25 25 26 27 26 26 29 31 31 31 31 32 31 31 31 30 30 31 31 31 29 29 28 27 27 28 28 29 29 30 29 29 28 28 27 27 27 26 25 24 23 22 21 20
10 9 9 10 11 11 11 11 12 13 13 13 13 14 13 13 14 15 15 15 15 13 14 16 17 18 20 21 20 17 14 12 10 9 10 11 12 13 15 16 19 21 22 23 25 27 26 27 30 33 33 32 33 33 33 32 32 31 31 32 33 32 31 30 29 28 28 28 29 29 30 30 30 30 29 28 27 27 27 26 25 24 23 22 21
8 7 8 10 10 9 11 11 11 12 13 13 14 15 15 14 14 15 14 15 15 14 14 15 16 17 18 18 19 21 19 14 10 8 8 10 10 11 13 14 16 19 20 20 22 25 27 29 31 33 34 35 35 35 35 35 34 33 32 32 33 34 34 33 31 30 29 29 29 29 30 30 30 30 30 29 28 28 27 27 26 25 24 23 22
5 6 8 9 9 10 11 12 12 12 12 12 13 14 14 14 13 13 13 13 13 13 12 13 15 15 15 15 16 16 15 15 16 14 10 10 11 11 15 17 17 19 19 19 20 22 25 28 32 33 34 35 36 35 36 37 35 34 33 32 32 33 34 34 34 33 31 30 30 30 30 30 30 31 31 30 30 29 28 28 27 27 26 25 23
8 9 9 8 10 11 11 10 9 8 9 9 11 12 13 12 11 11 11 11 11 11 11 10 11 12 12 13 12 9 12 17 21 18 13 12 12 12 15 18 19 20 20 20 21 22 22 24 28 31 32 34 36 36 35 35 35 34 33 33 32 32 33 34 35 35 34 33 32 31 31 32 32 31 31 31 31 30 29 29 28 28 27 26 24
13 10 7 8 10 10 8 7 7 7 8 8 9 11 11 10 10 10 9 9 10 10 9 8 8 10 10 10 10 11 15 19 19 18 18 18 16 14 15 17 19 20 20 20 20 20 21 22 23 25 28 31 34 35 35 34 34 34 34 33 32 32 33 34 35 36 35 35 34 32 32 33 33 33 32 31 31 30 30 30 29 29 28 26 25
10 7 6 8 9 9 9 8 7 7 8 9 9 10 10 9 9 9 9 9 9 9 9 8 8 9 10 12 13 14 16 17 17 19 21 22 20 18 17 16 17 17 16 17 19 20 21 22 22 23 25 27 29 32 35 35 34 34 34 33 32 32 33 33 34 35 36 36 35 34 33 33 33 34 33 32 31 31 31 30 30 29 28 27 25
7 4 5 8 9 10 10 8 8 10 10 10 10 10 10 10 10 10 10 10 10 10 10 10 11 11 11 12 13 14 14 15 15 16 18 21 23 23 21 20 19 18 16 16 18 19 21 21 22 24 25 25 26 28 31 32 33 33 34 34 32 32 34 33 33 34 35 36 36 35 35 34 34 34 34 33 32 31 31 31 31 30 28 28 27
7 4 5 8 9 11 10 8 10 12 11 10 10 10 10 10 11 11 11 11 10 10 10 10 11 11 11 11 12 12 13 13 14 15 17 19 20 23 25 25 23 20 17 17 19 20 21 22 22 23 24 25 25 25 26 29 31 33 35 35 34 34 34 34 33 33 34 35 36 36 35 35 35 34 34 34 34 32 32 32 32 31 31 30 29
6 5 5 5 7 10 11 11 11 11 9 8 8 8 9 10 10 10 9 9 8 8 9 9 9 9 9 10 11 12 13 14 14 15 17 19 19 22 24 25 27 25 21 20 21 22 23 24 25 25 24 24 24 24 25 27 30 32 33 34 35 36 36 35 34 34 33 33 35 36 36 36 36 36 35 35 35 34 34 34 34 33 33 32 31
7 7 5 4 6 10 12 12 11 8 6 6 6 7 8 10 10 9 8 7 7 7 8 8 8 8 8 8 9 10 11 13 14 15 17 18 20 22 23 23 26 27 25 25 24 24 24 25 27 28 26 25 26 27 27 27 28 29 31 32 33 35 38 38 37 36 35 32 33 35 36 36 36 36 36 35 35 35 35 35 35 35 35 34 33
7 5 3 5 9 12 12 11 9 8 7 7 6 7 8 9 9 9 8 8 7 7 7 8 8 7 8 9 9 9 9 10 13 15 15 16 19 22 23 23 26 27 27 28 27 26 24 25 26 27 28 28 29 30 29 28 28 29 30 32 33 35 38 39 40 40 38 36 34 34 35 36 36 35 35 35 35 36 35 35 35 35 35 35 34
5 4 6 9 11 11 10 8 7 8 9 8 8 8 9 9 8 7 7 8 7 7 7 7 7 7 8 9 10 10 8 9 13 15 15 15 17 20 23 24 26 28 28 28 29 29 27 25 25 26 26 28 29 30 29 29 30 30 30 31 32 34 37 39 41 43 43 40 38 36 34 34 36 35 35 35 35 35 35 35 35 35 35 35 35
7 7 8 9 9 8 8 7 8 8 9 10 10 10 10 10 8 7 6 7 8 8 7 7 7 8 9 10 10 10 8 9 13 16 15 15 16 19 23 25 27 29 29 28 29 31 31 28 27 26 26 27 28 29 30 30 30 30 30 31 31 32 36 39 40 43 45 43 40 39 37 36 36 35 35 35 35 35 35 35 35 35 35 35 35
6 6 7 7 7 6 7 8 8 8 9 10 10 10 10 10 10 8 7 7 8 8 7 7 8 9 10 11 11 10 9 11 15 15 14 15 16 17 20 24 27 30 31 30 30 31 32 32 31 29 27 28 27 27 28 29 29 29 28 30 32 32 34 37 39 41 43 43 42 40 39 38 36 35 35 35 35 36 36 36 36 35 35 35 35
5 5 6 7 6 6 7 8 9 9 9 9 9 10 12 12 12 10 9 8 8 8 7 7 8 9 11 12 12 10 10 13 15 14 13 15 16 17 18 20 23 28 31 33 32 32 32 32 34 33 30 28 26 26 27 29 30 29 27 27 29 31 33 35 36 38 40 41 41 40 39 36 34 34 35 35 35 36 37 37 37 37 36 36 35
5 6 8 8 8 8 8 9 9 10 9 9 10 12 13 14 14 13 12 10 9 8 9 9 9 10 12 12 12 11 13 15 14 13 14 16 17 18 19 19 19 23 27 31 34 34 34 33 34 36 34 29 27 28 29 30 31 30 28 27 27 28 30 32 34 35 37 37 36 38 37 33 32 34 36 36 36 36 37 37 38 38 38 37 36
7 8 9 8 8 8 9 9 10 10 9 9 10 12 13 14 14 13 12 11 10 10 10 11 11 12 13 13 13 13 14 15 13 12 14 15 17 19 20 21 20 20 23 28 33 34 34 34 34 35 37 35 33 32 32 31 31 29 27 26 27 27 28 30 32 34 36 36 34 34 34 33 34 37 38 37 38 37 37 37 37 38 39 38 38
7 7 7 6 8 10 9 9 10 10 10 10 11 12 13 14 14 13 12 11 11 11 11 12 12 13 13 13 14 15 16 15 13 12 14 15 17 20 22 23 23 22 22 23 30 34 34 35 37 37 38 38 36 35 34 33 32 31 31 31 31 29 27 28 30 33 36 36 35 34 34 35 37 39 39 39 39 38 38 37 37 38 39 39 39
4 5 5 7 11 11 9 11 13 12 10 10 11 13 14 14 14 14 12 12 12 12 12 12 13 14 15 15 16 16 16 16 14 13 14 15 18 20 22 24 24 24 23 22 27 36 37 35 37 39 39 39 38 36 35 35 33 33 34 35 34 32 30 28 28 31 35 37 37 36 36 38 40 39 39 39 40 40 39 38 37 37 38 38 38
5 6 6 9 13 13 12 14 16 14 13 12 12 13 13 14 15 14 14 14 14 13 13 14 14 16 17 17 18 17 17 17 16 15 16 16 18 19 21 24 26 25 25 25 28 37 40 38 37 39 39 39 40 37 35 35 34 32 31 33 33 34 33 32 30 29 31 34 36 37 38 40 41 40 39 39 40 41 40 39 37 36 36 36 37
8 9 9 11 13 13 13 15 16 16 16 15 15 16 15 15 15 15 16 16 16 15 15 16 16 17 18 18 19 18 18 18 17 16 17 17 18 19 21 24 27 26 25 28 30 36 42 42 40 40 39 38 39 39 35 34 34 32 32 31 32 33 34 34 33 31 31 32 34 36 38 40 40 40 39 39 39 40 41 39 37 36 35 36 37
10 10 10 12 12 12 14 16 16 16 17 18 18 18 17 17 16 16 15 15 15 16 17 17 17 17 19 19 19 19 19 19 18 17 18 18 18 19 22 24 27 27 27 29 31 36 42 44 43 42 40 37 37 38 35 34 34 32 32 32 31 33 34 34 35 34 33 33 34 35 37 38 38 38 39 39 39 40 40 40 38 37 36 36 37
10 10 10 11 12 13 15 16 16 16 17 17 17 17 17 18 18 16 15 15 15 17 17 17 18 18 19 20 20 20 20 21 20 18 18 18 19 21 23 25 26 28 29 30 32 36 41 45 45 42 41 38 36 35 34 34 34 31 31 31 31 32 34 35 36 36 35 34 34 34 35 36 37 38 39 39 39 40 40 39 38 37 37 36 37
9 11 13 14 15 16 15 14 14 13 13 14 16 17 18 19 18 16 16 16 16 16 16 15 16 17 18 20 21 21 22 23 23 21 19 19 21 23 25 26 27 28 30 31 33 36 40 44 45 43 40 38 36 34 31 31 32 30 30 31 30 30 32 34 36 37 36 35 35 34 34 34 35 37 39 39 39 41 41 40 39 38 38 37 37
12 14 16 17 17 16 13 13 14 14 14 15 17 19 18 17 16 16 16 16 16 15 15 15 16 17 18 20 22 22 23 24 24 23 21 21 22 24 26 27 27 28 29 30 33 36 40 42 44 44 41 38 37 35 30 28 31 30 30 30 30 30 30 32 34 35 35 36 36 36 37 36 33 34 36 37 38 41 43 42 40 39 39 38 37
16 18 18 17 16 14 13 16 17 17 16 16 16 17 16 16 16 16 15 15 15 15 15 15 15 16 17 19 21 21 22 24 25 24 24 23 23 24 26 27 27 26 27 29 33 37 41 43 43 44 42 38 38 37 32 27 28 30 30 31 32 32 30 31 33 34 34 35 37 36 37 35 33 31 32 32 35 39 42 42 41 40 40 38 37
17 18 17 15 14 13 14 16 15 14 15 15 15 16 17 17 17 17 15 15 15 15 14 14 15 16 17 18 19 19 21 22 24 25 26 26 25 25 26 27 26 26 26 29 33 37 41 42 43 43 42 39 38 38 35 30 27 28 28 30 33 33 31 31 33 34 34 36 36 35 36 35 33 32 31 31 33 37 40 41 41 41 41 39 38
14 13 12 12 12 12 13 13 12 14 17 17 16 15 15 16 18 18 17 16 16 15 15 15 16 16 17 18 18 19 20 22 24 26 27 28 27 26 26 26 26 26 27 29 32 37 41 41 42 43 42 39 39 39 37 34 30 28 27 28 32 34 33 33 34 35 35 35 35 34 35 36 36 35 34 34 33 36 39 40 40 41 41 40 39
11 11 11 11 12 12 12 12 13 17 18 17 15 15 16 17 19 20 20 19 17 17 17 18 18 18 19 19 19 18 19 22 24 26 27 28 29 28 27 26 25 25 28 29 31 36 40 40 41 43 42 41 40 39 39 37 35 32 29 27 30 33 33 35 37 37 37 36 35 34 34 35 37 38 39 38 36 36 38 39 40 41 41 40 39
12 12 13 12 13 13 13 14 16 18 18 18 17 17 18 19 19 20 20 20 19 19 20 19 19 19 20 20 19 18 19 21 24 26 27 27 28 27 27 26 24 25 28 29 29 34 37 38 40 42 42 43 43 41 40 39 38 36 32 29 30 31 33 35 37 38 38 37 35 35 34 33 35 38 40 40 38 37 39 40 40 40 39 38 38
13 14 14 14 14 14 15 16 17 18 19 19 19 20 20 19 18 19 20 20 21 22 22 21 20 20 19 19 19 19 20 22 24 25 24 24 23 23 24 25 25 25 27 26 27 32 36 37 40 42 43 44 44 43 42 41 39 38 36 32 30 31 32 35 38 38 38 37 35 36 36 33 33 36 38 39 39 38 39 39 39 38 38 37 37
14 15 15 16 15 15 16 17 19 20 20 20 21 22 21 18 17 19 20 21 22 23 24 23 22 20 18 18 19 19 20 21 22 22 22 21 21 22 23 24 25 26 27 25 26 30 35 39 41 43 45 46 47 46 43 41 40 39 39 36 33 32 32 35 39 38 37 36 35 35 36 35 34 35 37 38 38 38 38 38 38 38 38 37 36
15 16 17 17 16 15 17 18 20 21 21 21 23 23 22 19 19 20 21 22 23 23 24 24 23 22 20 19 19 20 20 20 20 20 20 20 21 22 23 24 26 27 27 25 26 31 36 40 44 46 47 46 46 45 41 39 39 40 41 39 36 34 32 32 36 37 36 37 36 35 35 35 34 34 36 36 36 36 37 37 36 36 37 37 35
16 17 17 18 18 17 17 18 20 22 22 21 22 23 23 22 20 21 22 22 23 23 24 24 23 21 20 19 19 19 20 20 20 20 20 21 22 24 25 26 27 29 29 27 28 32 35 41 46 48 48 48 46 44 41 39 39 40 41 40 36 35 34 32 34 35 36 36 36 36 37 36 34 35 35 35 34 35 36 36 36 36 36 36 35
17 17 18 20 20 18 17 18 20 20 20 20 21 21 21 20 20 21 23 22 23 24 24 22 21 19 18 18 18 19 20 21 22 22 22 23 23 25 27 28 29 31 31 29 30 32 35 41 48 49 49 50 48 44 40 37 37 39 40 39 37 35 35 34 34 34 34 35 36 37 38 37 35 36 36 34 33 34 34 34 35 36 37 37 36
17 17 17 18 18 17 16 17 18 19 22 24 25 23 22 20 19 20 21 21 22 24 25 23 21 19 19 19 19 20 20 21 23 24 22 23 25 27 29 29 30 32 32 31 31 34 37 42 48 49 48 50 48 43 38 32 34 38 41 42 40 36 33 34 35 34 33 34 36 36 36 36 35 36 36 33 32 33 34 34 35 36 37 37 37
17 16 16 15 14 15 16 17 20 22 25 27 27 26 26 24 19 18 20 21 23 25 24 21 20 20 19 20 20 20 19 21 24 24 23 24 27 28 28 28 30 32 33 32 33 37 40 45 49 49 48 49 47 42 35 27 30 37 43 47 43 38 36 35 35 34 33 34 36 35 35 36 36 36 35 33 32 34 34 34 34 35 37 37 37
16 15 14 13 13 14 17 19 22 24 26 27 26 26 26 23 19 19 20 21 22 23 21 19 19 19 19 20 20 18 18 20 22 23 24 26 27 27 27 28 30 33 33 33 34 37 41 46 50 50 50 51 48 43 35 23 23 31 39 45 44 42 42 38 34 33 33 33 34 34 34 35 35 36 36 32 32 34 34 33 33 34 36 38 38
Wind_Direction
275 276 278 283 293 297 295 294 297 308 321 325 323 321 320 320 321 319 318 319 318 319 316 311 314 320 319 313 315 314 310 309 300 285 269 262 262 250 231 223 226 222 222 232 230 222 226 228 229 230 229 232 231 222 215 209 207 209 212 213 211 210 211 212 214 214 215 216 214 211 212 214 216 216 216 218 217 217 216 213 214 219 223 225 229
269 277 280 285 292 295 296 294 296 305 309 308 307 306 306 308 309 309 309 307 304 306 307 306 309 318 321 314 309 306 303 305 297 284 272 260 255 252 245 232 228 227 226 233 239 236 234 234 231 232 232 231 232 231 226 220 215 212 213 216 216 215 215 215 216 216 216 217 216 216 216 218 220 221 222 224 225 226 225 223 221 223 229 233 238
267 277 279 284 289 290 291 291 294 297 294 291 293 294 298 302 302 302 302 300 298 297 298 298 300 309 319 317 310 301 294 294 291 281 273 267 261 254 247 241 235 235 234 231 234 239 241 241 238 235 234 233 232 231 231 229 225 220 218 217 218 219 218 219 220 220 220 220 220 220 221 222 223 225 227 229 230 229 227 227 227 227 231 237 242
266 276 281 285 287 288 287 287 289 289 287 286 288 292 298 302 301 300 299 298 297 295 294 293 292 297 306 312 310 303 295 287 281 274 270 268 267 264 253 251 249 245 242 237 235 236 238 242 244 242 238 235 234 232 231 231 229 227 225 221 220 221 221 221 222 223 224 224 224 224 223 224 227 229 229 232 233 231 229 229 230 230 234 238 242
268 278 283 286 287 289 291 292 294 294 295 295 296 299 301 301 299 297 295 294 293 293 293 290 289 291 295 302 302 299 297 288 278 270 266 265 264 262 259 262 263 254 245 243 242 240 238 239 241 243 243 238 235 234 233 233 231 229 229 227 223 222 223 224 224 225 227 227 226 226 227 227 229 231 231 232 234 234 233 232 231 232 235 238 242
274 283 285 288 290 292 294 294 295 296 298 299 299 301 301 299 296 294 292 289 289 293 294 293 294 293 295 301 297 290 291 291 281 269 266 270 269 265 263 265 266 260 250 244 244 245 243 239 237 239 241 241 239 236 235 234 234 231 229 229 228 226 225 225 225 226 228 229 229 229 229 229 230 231 232 233 233 235 236 235 234 234 235 238 242
289 291 289 290 292 294 294 293 294 295 295 294 296 300 302 303 301 299 296 290 288 291 294 298 302 304 305 306 301 293 289 288 281 269 267 274 273 268 266 266 265 262 256 248 246 247 247 244 240 238 238 240 240 239 237 235 235 234 230 227 228 229 228 227 226 227 228 229 230 231 231 231 231 232 233 234 234 234 235 236 237 238 238 240 242
295 293 291 293 295 296 295 294 294 294 295 296 299 304 306 308 309 309 307 301 297 299 303 306 308 310 309 306 306 304 298 292 286 277 276 277 275 270 268 266 262 261 259 255 251 250 250 248 246 243 240 239 239 240 240 238 235 234 233 229 226 228 230 230 229 228 228 229 230 231 232 233 233 233 234 234 235 234 234 236 238 241 243 244 245
292 290 290 294 296 296 294 294 295 297 301 305 307 309 310 311 313 314 307 301 302 305 307 305 305 306 307 308 309 306 301 295 287 281 280 278 275 271 271 271 265 260 259 258 258 257 254 251 249 248 246 243 240 240 240 240 238 235 235 233 229 227 227 230 231 230 230 230 231 232 233 234 234 234 235 235 236 236 236 237 239 242 245 247 248
294 290 290 293 295 296 295 296 298 303 307 311 312 311 313 314 316 315 303 294 294 299 304 305 307 308 307 309 309 302 296 290 283 279 277 276 274 270 269 271 270 269 267 264 262 263 261 257 253 251 249 247 244 241 240 241 241 239 236 235 233 230 228 227 230 232 233 232 232 233 234 234 235 235 236 236 237 238 239 240 241 242 245 247 248
299 292 290 291 295 297 297 298 302 306 311 313 312 311 314 318 320 317 305 295 297 305 312 314 313 312 309 309 308 303 297 289 282 279 275 273 272 269 267 269 271 275 278 274 268 266 265 262 258 253 249 248 246 244 241 240 241 242 240 237 235 234 232 229 228 230 233 235 236 236 237 236 236 237 238 238 238 239 240 242 243 243 244 246 246
300 293 290 294 299 300 298 300 305 308 309 310 309 309 314 320 323 322 317 312 314 321 324 322 318 319 318 315 313 316 315 304 289 284 282 280 276 272 269 269 270 274 278 276 272 269 267 264 262 257 252 248 247 247 244 241 240 242 242 240 238 236 235 234 231 230 231 234 237 239 240 240 240 240 240 241 240 240 241 242 243 243 243 244 244
301 294 294 301 302 304 306 309 313 313 314 314 313 315 320 324 324 323 325 324 324 329 329 325 325 330 329 323 322 325 326 324 316 305 297 293 289 282 277 274 273 271 271 269 267 267 266 263 260 257 256 253 249 248 248 246 242 240 242 243 241 239 238 237 236 234 232 233 235 238 240 242 243 243 243 244 244 244 244 244 243 242 242 242 243
298 295 303 310 308 308 308 310 315 317 320 324 325 327 329 329 323 317 318 318 319 325 326 324 326 330 329 324 326 329 325 327 334 331 320 310 302 294 287 282 278 273 270 270 269 268 268 266 260 255 255 256 253 250 249 249 246 243 241 242 244 243 241 239 238 238 237 236 236 237 238 241 242 244 245 245 246 247 247 246 244 242 242 242 241
301 306 318 317 313 311 307 309 315 317 321 325 326 328 329 329 324 315 311 313 315 318 321 319 316 319 323 322 325 327 325 331 339 334 323 315 313 308 296 284 276 274 275 278 279 277 274 272 266 260 256 254 252 251 250 250 249 247 244 242 243 244 244 242 240 239 240 240 239 239 238 239 240 242 243 245 246 248 249 247 245 243 243 242 242
292 303 312 306 302 302 303 309 315 317 321 325 323 323 328 334 334 325 317 316 314 315 319 317 311 314 320 320 323 323 322 327 325 319 311 305 312 310 296 290 286 284 283 284 287 288 284 277 270 266 262 257 254 252 253 254 252 250 248 246 245 246 247 245 243 241 241 241 241 241 241 240 240 241 242 243 245 246 247 247 245 245 244 243 243
271 282 283 274 280 287 294 305 315 323 327 327 323 322 329 336 339 336 329 324 320 317 322 322 316 316 318 318 321 316 313 319 320 317 312 304 304 299 294 299 302 300 295 291 290 291 292 287 276 269 265 263 260 257 257 257 256 254 252 250 248 249 251 250 247 244 242 242 242 242 242 242 242 243 243 244 245 245 245 245 245 246 246 245 245
281 288 281 270 279 289 301 315 323 327 326 325 324 324 331 336 336 335 332 332 329 325 327 326 318 315 318 319 316 307 310 317 316 314 313 310 310 306 301 303 303 302 299 295 295 293 291 292 286 277 271 267 264 262 260 258 257 256 255 254 252 252 253 253 251 248 245 244 243 243 242 242 242 243 244 244 245 245 244 243 244 246 247 247 247
289 300 308 297 299 311 321 323 321 325 326 326 326 325 330 337 335 332 334 338 337 333 332 331 325 321 323 322 318 314 315 315 313 314 314 312 314 316 313 311 311 310 307 302 302 299 293 292 291 287 281 275 270 267 263 259 257 257 257 257 254 254 256 255 253 251 249 246 244 244 243 242 241 242 243 243 244 244 243 243 243 244 246 248 250
295 294 306 308 317 326 326 325 326 332 331 326 326 329 332 337 338 336 337 340 339 336 334 332 329 325 323 321 319 321 323 324 323 322 318 313 316 318 318 317 315 312 309 305 304 302 299 296 293 291 287 282 276 270 267 262 259 258 258 256 254 255 257 257 255 253 252 250 247 245 245 245 243 241 241 241 242 242 241 241 241 242 244 247 250
307 291 282 303 319 324 323 326 329 329 327 324 328 336 340 342 342 341 336 335 340 339 333 331 331 332 332 326 323 324 325 329 332 331 326 320 319 321 321 319 316 311 305 299 297 297 296 294 293 291 287 283 280 276 273 267 263 261 258 255 254 255 256 257 256 255 254 253 250 247 246 247 246 243 241 240 241 240 240 240 241 242 244 247 249
299 284 272 292 312 309 305 309 317 322 322 323 329 338 344 346 344 342 335 331 336 337 336 334 335 340 342 335 333 333 331 333 336 336 334 328 323 322 323 322 318 314 308 301 297 291 288 287 287 286 282 280 282 281 278 271 265 262 259 256 255 254 254 255 255 254 254 253 251 249 248 248 247 246 244 242 241 240 239 240 241 243 246 248 250
263 264 264 272 282 281 284 295 308 318 322 322 328 333 339 341 339 339 338 333 332 333 338 338 338 344 346 343 344 343 343 344 345 343 338 332 325 322 322 322 317 313 309 307 301 294 287 283 281 280 276 276 277 279 278 274 268 266 263 261 258 255 254 254 253 253 252 248 247 248 249 248 247 246 246 245 243 241 240 240 242 244 247 249 250
256 261 254 249 258 269 281 297 313 324 327 329 331 331 333 335 332 330 333 332 329 330 336 335 339 347 347 346 344 342 346 351 349 344 338 330 323 320 320 320 316 312 311 309 304 299 293 286 282 278 274 271 272 274 275 273 270 270 267 264 262 258 254 253 253 253 253 249 245 244 246 248 247 246 247 247 246 244 242 242 242 244 247 249 251
251 247 247 253 262 274 289 307 318 320 322 326 330 329 329 331 330 327 326 322 321 330 335 334 338 342 341 339 337 336 339 343 343 342 339 333 327 322 322 322 317 315 315 313 309 305 299 293 289 286 281 275 272 272 273 272 270 270 269 267 264 260 255 253 252 251 251 250 246 242 241 245 248 248 247 247 247 247 245 245 244 245 246 249 250
240 240 254 265 275 288 304 317 316 312 311 315 321 326 327 331 335 334 324 315 315 326 327 323 327 330 331 332 333 334 333 332 337 341 345 344 338 332 328 325 321 318 316 314 310 307 304 300 298 295 292 286 280 276 275 273 270 268 269 268 267 262 257 254 253 251 248 246 245 242 239 242 246 250 249 247 247 247 246 247 247 246 246 248 249
254 263 273 274 280 299 313 314 311 311 313 316 320 327 332 334 336 337 332 322 318 321 317 313 322 329 331 332 334 335 330 329 334 340 347 346 340 335 331 327 324 321 319 316 311 307 304 302 300 297 296 294 290 284 281 278 275 273 271 267 266 264 259 255 253 250 245 243 245 244 241 241 243 247 251 250 248 247 245 246 247 248 247 247 249
270 280 276 276 289 305 308 306 307 310 316 323 325 329 334 333 331 331 332 330 323 316 311 311 319 326 330 332 333 332 327 327 331 334 341 344 342 340 338 334 327 322 321 319 315 311 308 305 301 298 297 298 294 288 284 282 279 277 275 270 267 266 262 258 256 249 241 241 244 243 241 242 242 245 247 248 248 248 246 245 246 247 249 249 249
270 275 280 287 297 302 302 302 305 309 315 324 324 324 326 324 322 321 322 324 319 311 307 307 311 317 323 328 331 330 325 324 325 328 337 343 347 347 345 342 334 324 320 317 313 312 311 310 306 301 299 297 292 287 283 281 280 278 275 274 271 269 266 262 260 251 242 240 241 239 239 242 245 247 247 246 246 246 245 245 244 246 249 250 250
273 281 291 299 308 309 309 306 304 303 306 310 311 311 310 310 311 312 313 314 312 308 304 301 303 308 315 321 325 326 324 322 318 322 333 341 346 351 351 350 346 334 323 315 310 310 311 310 308 303 300 297 292 289 286 281 278 276 272 271 270 269 267 264 260 253 244 239 237 236 238 242 246 249 250 249 247 246 244 244 244 245 247 249 250
284 294 306 322 328 323 319 322 319 309 299 295 295 296 298 300 304 307 307 308 308 306 304 303 304 306 308 311 316 321 322 318 313 315 326 334 340 348 352 354 354 345 334 321 311 311 313 310 307 306 303 300 294 289 286 280 274 270 265 266 268 266 264 262 258 250 243 237 235 235 238 242 245 248 250 250 248 247 244 242 243 245 246 247 249
317 315 306 313 327 328 324 330 334 328 316 303 292 289 293 295 297 301 304 303 301 298 298 302 303 302 301 302 307 316 319 314 309 311 320 326 334 344 350 351 353 350 343 333 317 315 317 313 310 309 307 305 297 289 285 281 275 270 264 263 264 263 260 259 255 247 241 238 237 238 240 242 245 247 248 248 247 246 244 241 242 244 245 246 247
315 315 301 307 324 329 323 326 332 334 330 323 311 305 305 302 297 297 300 299 297 295 293 295 296 296 298 299 302 309 313 310 308 309 317 325 332 341 347 346 347 350 347 340 329 323 322 319 315 310 309 308 302 293 287 283 279 273 267 263 261 259 257 256 253 246 239 237 239 240 241 243 244 245 246 247 246 244 242 240 240 241 243 244 246
297 302 303 306 314 317 316 319 323 325 324 324 322 318 317 313 306 301 299 296 295 295 294 293 291 292 295 297 300 303 306 306 304 303 311 322 331 338 343 342 342 345 346 342 336 329 325 324 321 316 312 311 306 298 290 283 279 275 270 267 263 257 254 253 251 246 240 238 239 241 242 242 243 244 245 245 245 242 238 237 239 239 240 242 245
282 287 289 292 298 304 307 309 314 316 315 317 318 315 313 313 311 308 302 295 292 293 295 294 291 290 292 296 299 301 302 302 300 297 303 315 325 332 336 337 338 340 342 342 339 334 327 325 325 322 317 312 306 302 294 283 279 277 270 267 264 258 253 250 249 246 243 243 242 241 242 242 242 244 244 243 243 240 236 235 237 238 239 241 244
264 264 267 275 284 289 292 298 307 308 306 308 310 308 306 306 307 306 303 298 294 293 294 293 291 290 291 294 298 300 300 300 299 294 297 309 318 324 328 331 334 336 338 340 340 337 330 326 325 325 320 312 306 304 299 286 278 275 270 266 263 258 252 248 247 246 244 246 246 244 244 244 243 243 243 243 242 239 235 235 236 237 238 239 242
246 252 261 273 280 282 286 293 300 303 302 300 299 299 300 300 302 303 301 297 293 292 295 296 294 291 291 293 296 298 297 297 298 295 293 302 312 318 323 326 328 331 335 339 340 338 333 328 326 326 321 313 307 305 298 285 276 271 268 265 262 258 254 249 247 246 245 246 247 245 245 246 245 244 243 243 241 237 235 235 236 236 236 237 240
255 263 271 278 280 280 282 285 288 290 288 286 289 294 296 298 302 303 299 295 291 292 296 299 298 294 292 292 294 295 293 294 296 295 292 296 307 316 320 322 324 327 333 339 340 338 335 331 327 326 322 315 310 307 299 285 276 272 267 263 260 259 256 252 248 245 243 244 246 246 245 246 247 244 241 240 241 237 234 235 235 234 235 236 238
264 270 275 277 277 275 275 278 282 283 284 286 290 294 297 300 303 301 299 296 293 295 300 304 306 304 301 298 295 294 293 294 295 296 293 293 301 312 318 319 321 324 330 336 338 337 335 331 328 326 323 317 311 309 303 288 277 273 269 262 259 257 256 252 248 244 241 242 246 247 245 245 245 244 241 242 243 238 234 233 233 233 233 235 237
262 266 271 274 274 272 273 279 286 291 295 295 294 294 297 300 301 300 298 295 294 297 301 305 312 316 315 311 304 299 297 296 297 297 297 294 296 306 315 316 317 320 324 330 333 335 333 330 327 326 324 319 313 310 308 297 282 277 274 265 259 256 254 250 247 244 243 245 248 248 246 243 241 240 239 242 244 238 232 231 232 232 233 235 236
260 263 272 280 282 282 285 288 291 296 298 296 294 297 302 303 304 303 298 294 293 294 295 299 307 315 317 315 310 303 299 300 300 299 298 296 295 299 308 313 313 314 318 322 328 332 332 329 326 325 323 320 315 311 310 304 292 284 281 272 263 257 255 253 250 247 247 249 251 252 248 242 238 236 236 241 243 236 230 229 231 231 232 234 235
271 279 288 293 294 296 296 292 288 292 299 303 303 307 309 307 306 304 299 294 290 288 290 296 303 308 312 314 311 304 298 297 296 296 297 295 293 294 301 306 308 311 316 318 323 329 330 327 325 323 320 318 316 311 307 304 298 288 280 275 270 262 256 255 254 250 249 251 252 253 249 242 238 236 237 241 243 237 230 229 229 230 230 232 234
280 289 294 298 300 299 294 289 288 294 301 306 307 309 311 309 306 303 300 296 290 287 290 294 297 302 310 314 312 307 302 298 297 298 300 299 296 296 299 301 304 310 315 316 321 328 329 327 325 323 318 315 315 311 305 302 299 292 282 276 273 266 257 254 253 250 248 247 248 249 247 242 239 238 238 240 241 237 232 229 229 229 229 231 233
280 285 290 295 299 296 289 288 292 296 300 304 307 308 309 309 307 305 303 299 294 291 291 290 291 296 307 313 312 313 314 311 308 305 303 303 301 298 299 300 303 309 312 314 320 327 330 329 326 323 318 315 312 309 302 298 296 292 285 277 270 265 259 253 250 249 247 245 245 246 246 243 241 241 240 238 238 236 233 230 228 228 230 231 232
276 279 283 288 291 289 286 288 294 299 302 305 307 307 307 308 309 308 306 303 298 294 291 288 287 292 301 308 313 318 321 319 316 310 306 307 305 300 300 301 304 308 311 313 317 324 331 333 327 321 319 316 310 305 300 294 290 285 281 275 266 262 261 255 249 249 249 247 244 244 246 245 242 242 241 238 236 235 233 231 229 229 230 231 231
273 275 277 279 281 284 285 287 292 297 301 305 309 309 308 309 307 306 306 305 302 299 294 289 288 289 292 301 311 319 320 320 320 318 314 310 306 304 305 306 308 311 311 313 318 325 332 335 329 323 321 318 312 307 300 291 282 275 271 270 264 259 259 258 254 251 250 248 245 244 247 247 243 242 242 238 236 236 234 231 230 230 230 230 230
272 276 276 275 277 283 286 286 289 294 299 306 311 309 306 306 304 303 305 307 307 305 300 293 289 286 287 296 309 316 317 320 323 322 317 312 308 308 310 311 312 312 310 311 319 327 333 334 330 326 323 321 317 311 302 291 280 269 263 263 261 256 254 257 257 252 247 246 245 243 246 248 245 243 241 238 237 238 236 234 232 231 230 229 229
271 276 279 280 282 287 291 291 292 294 296 300 301 298 295 297 298 297 297 300 305 308 305 298 292 287 289 297 306 311 314 319 323 321 315 312 312 313 314 315 313 313 311 310 316 325 329 329 328 327 326 326 323 314 305 292 276 264 258 257 256 251 249 252 254 250 245 243 241 240 243 246 244 242 242 240 239 239 239 238 236 234 232 230 229
271 276 281 284 286 287 291 292 290 288 289 292 294 292 289 290 291 290 288 290 301 307 305 298 293 290 293 298 304 307 310 315 321 320 316 315 317 317 316 314 313 314 315 312 314 321 325 326 328 330 332 334 329 320 311 292 267 254 248 246 245 242 240 244 247 247 244 241 238 238 240 242 240 240 242 243 242 242 242 241 239 236 233 231 231
269 274 283 291 291 286 284 285 286 287 289 294 298 299 296 292 284 279 281 289 301 306 303 297 293 291 293 297 301 305 308 313 317 319 320 320 319 317 315 314 315 316 318 316 316 321 326 329 331 333 337 340 336 330 323 298 262 247 239 236 236 233 230 233 239 243 243 240 238 237 238 240 237 236 240 242 242 243 243 241 240 238 235 234 233
266 273 285 291 284 277 280 286 291 292 294 300 305 306 303 295 281 277 286 297 303 302 300 299 297 295 295 297 301 304 308 310 314 318 320 319 317 317 315 316 317 317 319 319 319 323 330 334 336 338 341 343 342 341 338 312 263 246 238 234 231 228 224 224 230 237 238 237 237 235 236 239 235 230 233 237 238 241 240 237 238 238 237 237 236
Height
1581 1581 1582 1582 1582 1582 1581 1581 1580 1580 1580 1580 1580 1579 1579 1579 1579 1578 1578 1578 1577 1577 1576 1576 1575 1575 1575 1575 1575 1575 1575 1575 1574 1574 1574 1574 1574 1574 1574 1575 1576 1577 1578 1579 1580 1581 1582 1583 1584 1584 1585 1585 1585 1584 1584 1584 1584 1585 1586 1587 1588 1588 1589 1590 1590 1591 1592 1592 1593 1593 1594 1595 1596 1596 1597 1597 1597 1597 1597 1597 1597 1597 1597 1597 1597
1580 1581 1581 1581 1581 1581 1581 1580 1580 1580 1580 1579 1578 1578 1577 1577 1577 1577 1577 1577 1576 1576 1576 1575 1575 1574 1574 1574 1574 1574 1573 1573 1573 1573 1573 1573 1573 1573 1574 1574 1575 1576 1576 1577 1578 1579 1581 1581 1582 1582 1583 1583 1583 1583 1583 1583 1583 1584 1584 1585 1586 1587 1588 1588 1589 1590 1591 1591 1592 1592 1593 1594 1595 1595 1596 1596 1597 1597 1597 1597 1597 1597 1597 1597 1597
1580 1580 1580 1580 1580 1580 1580 1580 1580 1579 1579 1578 1577 1576 1576 1576 1575 1575 1575 1575 1575 1574 1574 1574 1574 1573 1573 1573 1573 1573 1572 1572 1572 1572 1572 1573 1573 1573 1573 1573 1573 1574 1575 1575 1576 1577 1578 1579 1580 1581 1581 1581 1582 1582 1582 1582 1582 1582 1582 1583 1584 1585 1586 1587 1588 1589 1589 1590 1590 1591 1592 1593 1593 1594 1595 1595 1596 1596 1596 1596 1596 1596 1596 1596 1596
1579 1579 1579 1579 1579 1579 1579 1579 1579 1578 1578 1577 1576 1575 1574 1574 1573 1573 1573 1572 1572 1572 1572 1572 1572 1572 1572 1572 1572 1571 1571 1571 1571 1571 1571 1572 1572 1572 1572 1572 1572 1572 1573 1573 1573 1574 1576 1577 1578 1579 1579 1579 1580 1580 1580 1580 1580 1580 1581 1581 1582 1583 1584 1585 1586 1587 1588 1588 1589 1590 1590 1591 1592 1593 1593 1594 1595 1595 1595 1595 1595 1595 1595 1595 1595
1578 1578 1578 1578 1578 1577 1577 1577 1577 1576 1575 1575 1574 1574 1573 1572 1572 1571 1571 1570 1570 1570 1570 1570 1570 1570 1570 1570 1570 1570 1570 1569 1569 1569 1570 1570 1570 1570 1570 1570 1570 1571 1572 1572 1572 1573 1573 1575 1576 1577 1578 1578 1578 1578 1578 1578 1578 1578 1578 1579 1580 1581 1582 1583 1584 1585 1586 1587 1587 1588 1589 1589 1590 1591 1592 1593 1593 1594 1594 1594 1594 1594 1594 1594 1594
1577 1577 1577 1576 1576 1575 1575 1575 1575 1574 1573 1573 1572 1572 1572 1571 1571 1570 1569 1569 1568 1568 1568 1568 1568 1568 1568 1568 1568 1568 1568 1567 1567 1567 1568 1568 1568 1568 1568 1569 1569 1570 1570 1570 1571 1571 1572 1573 1573 1575 1575 1576 1576 1576 1576 1576 1576 1576 1576 1577 1578 1579 1580 1581 1582 1583 1584 1585 1585 1586 1587 1588 1589 1589 1590 1591 1592 1592 1593 1593 1593 1593 1593 1593 1593
1575 1575 1575 1575 1574 1574 1574 1574 1573 1573 1572 1572 1571 1571 1570 1570 1569 1569 1568 1568 1567 1567 1567 1566 1566 1565 1565 1565 1565 1565 1565 1565 1565 1565 1566 1566 1566 1565 1566 1567 1568 1568 1569 1569 1570 1570 1570 1571 1571 1572 1573 1574 1574 1574 1574 1574 1574 1574 1574 1575 1575 1576 1577 1578 1580 1581 1582 1583 1584 1584 1585 1586 1587 1588 1588 1589 1590 1591 1591 1592 1592 1592 1592 1592 1592
1574 1574 1574 1574 1573 1573 1573 1572 1572 1572 1571 1571 1570 1570 1569 1568 1567 1567 1566 1566 1566 1566 1565 1565 1564 1563 1563 1563 1563 1563 1562 1562 1562 1562 1563 1563 1563 1563 1564 1565 1565 1566 1567 1568 1568 1569 1569 1569 1570 1570 1571 1571 1572 1572 1573 1573 1572 1572 1572 1572 1573 1574 1575 1576 1577 1578 1580 1581 1582 1582 1583 1584 1585 1586 1587 1587 1588 1589 1590 1590 1591 1591 1591 1591 1591
1573 1573 1573 1572 1572 1572 1572 1571 1571 1570 1570 1569 1568 1568 1567 1567 1566 1565 1565 1565 1564 1564 1564 1563 1562 1562 1561 1561 1561 1560 1560 1559 1559 1559 1559 1560 1561 1561 1561 1562 1563 1564 1564 1565 1566 1567 1568 1568 1568 1568 1569 1569 1570 1570 1571 1571 1571 1570 1570 1571 1571 1571 1572 1573 1575 1576 1577 1578 1579 1580 1581 1582 1583 1583 1584 1585 1586 1587 1588 1588 1589 1589 1590 1590 1590
1572 1572 1571 1571 1571 1571 1570 1570 1570 1569 1568 1568 1567 1567 1566 1565 1565 1564 1564 1563 1563 1562 1562 1562 1561 1560 1559 1559 1558 1558 1557 1556 1556 1556 1556 1557 1558 1559 1559 1560 1560 1561 1562 1563 1564 1565 1566 1566 1567 1567 1567 1567 1568 1568 1568 1569 1569 1569 1569 1569 1569 1569 1569 1570 1572 1573 1575 1576 1577 1578 1579 1580 1580 1581 1582 1583 1584 1585 1586 1586 1587 1587 1588 1588 1588
1570 1570 1570 1570 1570 1569 1569 1569 1568 1568 1567 1567 1566 1565 1565 1564 1563 1563 1562 1562 1561 1561 1560 1560 1559 1558 1558 1557 1556 1555 1554 1554 1553 1553 1553 1554 1555 1557 1557 1558 1558 1559 1560 1561 1562 1563 1564 1565 1565 1565 1565 1565 1565 1566 1566 1566 1567 1567 1567 1567 1567 1567 1568 1568 1569 1570 1572 1573 1575 1576 1576 1577 1578 1579 1580 1581 1582 1583 1584 1585 1585 1586 1586 1586 1586
1569 1569 1569 1569 1568 1568 1568 1568 1567 1567 1566 1566 1565 1564 1563 1563 1562 1561 1561 1561 1560 1559 1559 1558 1557 1557 1556 1556 1555 1554 1553 1552 1552 1551 1551 1552 1552 1554 1555 1556 1556 1557 1558 1558 1559 1560 1562 1563 1563 1563 1563 1563 1563 1564 1564 1564 1564 1564 1565 1565 1565 1566 1566 1566 1567 1567 1569 1570 1572 1573 1574 1575 1576 1577 1578 1579 1580 1581 1582 1582 1583 1584 1584 1584 1585
1568 1568 1568 1567 1567 1567 1567 1566 1566 1565 1565 1564 1564 1563 1562 1562 1561 1560 1559 1559 1559 1558 1557 1556 1555 1555 1554 1553 1553 1553 1552 1552 1551 1551 1551 1551 1551 1551 1552 1553 1554 1555 1555 1555 1555 1556 1557 1559 1560 1561 1561 1561 1561 1561 1561 1561 1561 1562 1562 1563 1563 1564 1564 1564 1565 1565 1566 1567 1569 1570 1571 1572 1573 1574 1575 1576 1577 1578 1579 1580 1581 1582 1582 1582 1583
1567 1566 1566 1566 1566 1566 1565 1565 1564 1564 1563 1562 1562 1561 1560 1560 1560 1559 1559 1558 1557 1557 1557 1555 1554 1553 1552 1551 1550 1550 1550 1550 1550 1550 1550 1550 1550 1550 1551 1551 1551 1552 1552 1552 1553 1553 1553 1554 1554 1555 1557 1558 1559 1559 1559 1559 1559 1559 1560 1560 1561 1562 1562 1562 1563 1563 1564 1564 1566 1567 1568 1569 1570 1572 1573 1574 1575 1576 1577 1578 1579 1579 1580 1580 1581
1565 1565 1565 1565 1565 1564 1564 1563 1563 1563 1562 1561 1560 1560 1559 1559 1558 1558 1557 1557 1556 1556 1556 1555 1554 1553 1552 1551 1549 1548 1547 1548 1548 1549 1549 1549 1549 1549 1549 1550 1549 1549 1549 1550 1551 1551 1551 1551 1551 1551 1552 1553 1554 1555 1555 1556 1556 1557 1558 1558 1559 1560 1560 1561 1561 1561 1562 1562 1563 1564 1565 1566 1567 1568 1570 1571 1572 1573 1574 1575 1576 1577 1578 1578 1579
1564 1564 1564 1564 1563 1563 1563 1562 1562 1561 1560 1560 1559 1559 1558 1558 1557 1556 1556 1556 1555 1555 1555 1554 1553 1553 1552 1551 1550 1549 1547 1547 1547 1547 1548 1548 1548 1548 1548 1548 1548 1548 1548 1548 1548 1549 1549 1548 1548 1548 1549 1549 1549 1550 1551 1553 1554 1556 1556 1556 1557 1558 1559 1559 1560 1560 1560 1560 1561 1562 1563 1564 1564 1565 1566 1567 1569 1570 1571 1573 1574 1575 1575 1576 1576
1563 1563 1563 1563 1562 1562 1562 1561 1561 1560 1559 1559 1558 1558 1558 1557 1557 1556 1555 1555 1554 1554 1554 1554 1553 1552 1552 1551 1550 1549 1548 1547 1546 1545 1546 1547 1547 1547 1547 1547 1546 1546 1546 1546 1546 1546 1546 1545 1545 1545 1546 1546 1545 1545 1547 1550 1552 1554 1554 1555 1555 1556 1557 1558 1558 1558 1558 1558 1558 1559 1560 1561 1562 1562 1563 1564 1566 1567 1568 1569 1571 1572 1573 1574 1574
1561 1561 1561 1561 1561 1560 1560 1560 1559 1559 1558 1558 1557 1557 1557 1556 1556 1555 1555 1554 1554 1553 1553 1553 1552 1552 1551 1550 1550 1549 1548 1547 1546 1544 1544 1544 1545 1546 1546 1545 1545 1544 1544 1543 1543 1543 1543 1543 1543 1542 1542 1542 1542 1542 1544 1546 1548 1549 1550 1551 1553 1554 1555 1556 1556 1556 1557 1556 1556 1557 1557 1558 1559 1560 1561 1561 1562 1564 1565 1566 1568 1569 1570 1571 1572
1560 1560 1560 1559 1559 1559 1559 1558 1558 1558 1557 1557 1556 1556 1555 1555 1554 1554 1553 1553 1553 1552 1552 1552 1551 1551 1550 1550 1549 1549 1548 1547 1546 1545 1543 1542 1542 1543 1544 1543 1543 1542 1542 1541 1541 1541 1541 1541 1541 1540 1540 1539 1540 1540 1541 1543 1544 1545 1546 1547 1549 1550 1552 1553 1554 1555 1555 1555 1555 1554 1555 1555 1556 1557 1558 1558 1559 1560 1562 1563 1564 1566 1567 1568 1569
1558 1558 1558 1558 1558 1557 1557 1557 1557 1556 1556 1555 1555 1554 1554 1553 1553 1553 1552 1552 1551 1551 1551 1550 1550 1550 1550 1549 1548 1548 1547 1547 1546 1545 1544 1542 1540 1540 1540 1541 1541 1540 1540 1540 1539 1539 1538 1538 1538 1538 1537 1537 1538 1538 1538 1539 1540 1541 1542 1544 1544 1546 1547 1549 1551 1552 1552 1552 1552 1552 1552 1552 1553 1553 1554 1555 1556 1557 1558 1560 1561 1562 1564 1565 1566
1557 1557 1557 1557 1557 1556 1556 1556 1555 1555 1555 1554 1554 1553 1552 1552 1552 1551 1551 1551 1551 1550 1550 1550 1549 1549 1548 1548 1547 1547 1546 1546 1545 1545 1543 1542 1540 1539 1538 1537 1537 1538 1539 1538 1538 1537 1536 1535 1535 1535 1535 1534 1535 1535 1535 1536 1536 1537 1538 1540 1541 1541 1542 1544 1546 1548 1549 1550 1550 1550 1550 1550 1550 1550 1551 1552 1553 1554 1555 1556 1558 1559 1560 1562 1563
1557 1556 1557 1557 1556 1555 1555 1555 1555 1554 1554 1553 1553 1552 1552 1551 1551 1551 1550 1550 1550 1550 1549 1549 1549 1548 1548 1547 1546 1546 1545 1545 1544 1544 1543 1541 1540 1539 1538 1536 1534 1534 1535 1536 1536 1535 1534 1532 1532 1532 1532 1532 1531 1532 1532 1532 1533 1533 1535 1536 1538 1538 1538 1539 1540 1542 1544 1545 1546 1547 1547 1547 1547 1547 1548 1548 1549 1551 1552 1553 1554 1556 1557 1558 1560
1556 1556 1556 1556 1555 1555 1554 1554 1554 1553 1553 1553 1552 1552 1551 1551 1551 1550 1550 1550 1549 1549 1549 1548 1548 1548 1547 1547 1546 1545 1545 1544 1543 1542 1541 1540 1539 1538 1537 1536 1534 1532 1532 1532 1532 1532 1531 1530 1529 1528 1529 1529 1529 1529 1529 1529 1529 1530 1530 1532 1533 1534 1534 1534 1535 1537 1539 1540 1541 1542 1543 1544 1544 1544 1545 1545 1546 1547 1548 1550 1551 1552 1554 1555 1556
1555 1555 1555 1555 1554 1554 1554 1553 1553 1552 1552 1552 1552 1551 1551 1550 1550 1549 1549 1549 1548 1548 1548 1547 1547 1547 1546 1545 1545 1544 1544 1543 1543 1542 1540 1539 1538 1536 1535 1534 1532 1530 1530 1529 1528 1527 1527 1527 1526 1526 1526 1526 1526 1526 1525 1526 1526 1526 1526 1527 1528 1529 1529 1529 1530 1532 1534 1535 1536 1536 1538 1539 1540 1541 1541 1542 1542 1543 1545 1546 1547 1549 1550 1551 1553
1554 1554 1554 1553 1553 1553 1552 1552 1551 1551 1551 1551 1550 1550 1550 1549 1549 1548 1548 1547 1547 1547 1547 1546 1546 1545 1545 1544 1544 1543 1543 1542 1542 1541 1539 1538 1537 1535 1533 1532 1530 1527 1527 1526 1524 1523 1522 1523 1523 1522 1522 1522 1522 1522 1522 1522 1521 1522 1523 1523 1523 1524 1524 1524 1525 1526 1528 1529 1530 1531 1532 1534 1536 1537 1538 1539 1539 1540 1541 1542 1544 1545 1546 1548 1549
1552 1552 1552 1552 1552 1552 1551 1551 1550 1550 1550 1549 1549 1549 1549 1548 1548 1547 1547 1546 1546 1546 1545 1545 1545 1544 1544 1543 1543 1542 1541 1541 1540 1539 1538 1537 1535 1534 1531 1529 1527 1524 1523 1522 1521 1519 1517 1518 1519 1518 1518 1518 1518 1517 1517 1517 1517 1517 1518 1519 1519 1519 1518 1518 1519 1520 1522 1524 1525 1526 1527 1528 1531 1533 1534 1535 1536 1536 1537 1538 1540 1541 1543 1544 1545
1550 1551 1551 1551 1551 1551 1550 1550 1550 1549 1549 1548 1548 1548 1547 1547 1546 1546 1545 1545 1545 1544 1544 1544 1544 1543 1542 1542 1541 1541 1540 1539 1538 1537 1536 1535 1534 1533 1531 1528 1525 1521 1519 1518 1517 1516 1514 1513 1513 1514 1514 1513 1513 1513 1512 1512 1512 1512 1514 1514 1513 1513 1513 1513 1514 1515 1516 1518 1519 1520 1522 1523 1525 1528 1530 1530 1531 1532 1533 1534 1535 1537 1538 1540 1541
1549 1550 1550 1550 1550 1550 1550 1549 1549 1548 1548 1547 1547 1546 1546 1545 1545 1545 1544 1544 1543 1543 1543 1543 1542 1542 1541 1541 1540 1540 1539 1538 1537 1536 1535 1534 1533 1531 1530 1528 1525 1520 1517 1514 1512 1511 1510 1510 1508 1508 1509 1509 1508 1509 1508 1508 1508 1508 1508 1509 1508 1508 1508 1507 1508 1509 1510 1512 1514 1514 1516 1518 1520 1522 1525 1526 1526 1527 1529 1530 1531 1532 1534 1535 1537
1548 1549 1549 1549 1549 1549 1549 1548 1548 1547 1547 1546 1546 1545 1545 1544 1544 1543 1543 1542 1542 1542 1541 1541 1541 1540 1540 1539 1539 1538 1538 1537 1536 1535 1533 1532 1531 1530 1528 1527 1525 1522 1517 1513 1510 1507 1506 1506 1505 1502 1503 1505 1504 1504 1504 1503 1502 1503 1503 1503 1503 1502 1502 1502 1503 1504 1505 1506 1508 1509 1511 1513 1514 1517 1520 1521 1522 1523 1524 1525 1526 1528 1529 1531 1532
1547 1548 1548 1548 1549 1548 1548 1547 1547 1546 1546 1545 1544 1544 1543 1543 1542 1542 1541 1541 1540 1540 1540 1540 1539 1539 1538 1538 1537 1537 1536 1535 1534 1533 1532 1530 1529 1528 1526 1525 1523 1521 1519 1514 1508 1506 1504 1503 1502 1500 1498 1499 1499 1499 1499 1497 1497 1498 1498 1498 1498 1498 1498 1498 1498 1498 1500 1501 1502 1504 1506 1508 1510 1512 1515 1516 1517 1518 1519 1520 1522 1523 1525 1526 1528
1546 1547 1547 1547 1547 1547 1547 1546 1545 1545 1544 1544 1543 1543 1542 1541 1541 1540 1539 1539 1538 1538 1538 1538 1537 1537 1536 1536 1535 1535 1534 1533 1532 1531 1530 1529 1527 1526 1524 1523 1521 1519 1517 1514 1507 1504 1503 1500 1498 1497 1495 1493 1493 1493 1492 1492 1491 1492 1493 1492 1492 1493 1493 1493 1493 1493 1495 1496 1497 1499 1501 1503 1505 1508 1510 1511 1512 1514 1514 1515 1517 1518 1520 1521 1523
1546 1546 1546 1546 1546 1546 1545 1545 1544 1544 1543 1542 1542 1541 1540 1540 1539 1538 1538 1537 1536 1536 1536 1535 1535 1534 1534 1534 1533 1532 1531 1531 1530 1529 1528 1527 1525 1524 1522 1520 1519 1516 1514 1512 1506 1501 1500 1499 1495 1493 1491 1489 1487 1487 1486 1485 1486 1486 1486 1487 1487 1487 1488 1488 1488 1489 1490 1491 1493 1494 1496 1498 1500 1502 1504 1506 1507 1509 1510 1511 1512 1513 1515 1517 1518
1545 1545 1545 1545 1545 1544 1544 1543 1543 1542 1542 1541 1540 1540 1539 1538 1537 1537 1536 1536 1535 1534 1534 1533 1533 1532 1532 1531 1530 1530 1529 1528 1527 1527 1525 1524 1523 1521 1519 1517 1516 1514 1511 1509 1505 1498 1495 1495 1493 1489 1488 1485 1482 1481 1481 1480 1479 1480 1481 1481 1481 1482 1482 1482 1483 1484 1485 1486 1488 1489 1491 1493 1495 1497 1499 1500 1502 1503 1505 1506 1507 1509 1510 1512 1514
1544 1544 1544 1544 1543 1543 1542 1542 1541 1541 1540 1539 1539 1538 1537 1537 1536 1535 1535 1534 1533 1533 1532 1532 1531 1530 1529 1528 1528 1527 1526 1525 1525 1524 1523 1522 1520 1518 1517 1515 1513 1512 1509 1506 1503 1497 1490 1489 1488 1485 1483 1482 1478 1476 1477 1475 1474 1475 1475 1475 1476 1476 1477 1477 1478 1479 1480 1482 1483 1484 1486 1488 1490 1491 1493 1495 1497 1498 1499 1501 1503 1504 1506 1508 1509
1542 1542 1542 1542 1542 1541 1541 1540 1540 1539 1538 1538 1537 1536 1536 1535 1534 1533 1533 1532 1531 1531 1530 1529 1529 1528 1527 1526 1525 1524 1524 1523 1522 1521 1520 1519 1517 1516 1514 1513 1510 1508 1507 1504 1501 1496 1489 1485 1484 1481 1478 1477 1474 1471 1472 1471 1469 1469 1469 1469 1470 1471 1471 1472 1472 1473 1475 1477 1478 1479 1481 1482 1484 1486 1488 1490 1491 1493 1494 1496 1498 1499 1501 1503 1505
1540 1541 1541 1541 1540 1540 1539 1539 1538 1537 1537 1536 1535 1534 1534 1533 1532 1531 1531 1530 1529 1528 1528 1527 1526 1525 1524 1523 1522 1522 1521 1520 1519 1519 1518 1516 1515 1513 1511 1510 1508 1505 1503 1501 1498 1495 1489 1482 1480 1478 1475 1472 1469 1467 1466 1466 1464 1464 1464 1464 1464 1465 1466 1467 1467 1468 1470 1472 1473 1474 1476 1477 1479 1480 1482 1484 1486 1488 1489 1491 1493 1495 1496 1498 1500
1539 1539 1539 1539 1539 1538 1538 1537 1536 1535 1534 1534 1533 1532 1531 1531 1530 1529 1528 1528 1527 1526 1525 1524 1524 1523 1522 1521 1520 1519 1518 1517 1516 1515 1514 1513 1511 1510 1508 1506 1505 1503 1500 1498 1495 1492 1488 1481 1477 1475 1472 1469 1465 1463 1462 1462 1460 1459 1459 1459 1459 1459 1460 1461 1462 1463 1464 1466 1468 1469 1471 1472 1473 1475 1476 1478 1480 1482 1484 1486 1488 1490 1492 1493 1495
1537 1538 1538 1537 1537 1536 1536 1535 1534 1533 1533 1532 1531 1530 1529 1528 1528 1527 1526 1525 1525 1524 1523 1522 1521 1521 1520 1519 1517 1517 1515 1514 1513 1512 1511 1510 1508 1507 1505 1503 1502 1500 1497 1495 1493 1490 1486 1481 1475 1471 1468 1465 1462 1459 1458 1458 1456 1454 1454 1454 1454 1455 1455 1455 1456 1457 1459 1461 1462 1463 1465 1466 1468 1469 1471 1473 1475 1477 1479 1481 1483 1485 1487 1489 1490
1536 1536 1536 1536 1535 1535 1534 1533 1532 1532 1530 1530 1529 1528 1527 1526 1526 1525 1524 1523 1523 1522 1521 1520 1519 1518 1517 1516 1515 1514 1513 1511 1510 1509 1508 1506 1505 1503 1502 1500 1499 1497 1494 1492 1490 1487 1483 1478 1473 1469 1466 1462 1459 1456 1454 1454 1452 1450 1450 1450 1449 1449 1450 1450 1450 1452 1454 1455 1456 1458 1459 1461 1463 1464 1466 1468 1469 1471 1474 1476 1478 1480 1482 1484 1486
1534 1534 1534 1534 1533 1532 1532 1531 1530 1529 1528 1527 1526 1525 1525 1524 1524 1523 1522 1521 1520 1519 1519 1518 1517 1516 1515 1514 1512 1511 1510 1508 1507 1506 1504 1503 1502 1500 1499 1498 1496 1494 1492 1489 1487 1484 1481 1476 1471 1467 1463 1460 1456 1454 1451 1450 1448 1446 1446 1446 1444 1444 1446 1446 1446 1447 1449 1450 1451 1453 1454 1456 1457 1459 1461 1463 1464 1466 1468 1471 1473 1475 1478 1479 1481
1532 1533 1532 1531 1531 1530 1530 1529 1528 1527 1526 1525 1524 1523 1522 1522 1521 1520 1520 1519 1518 1517 1516 1515 1514 1513 1512 1510 1509 1508 1507 1506 1504 1503 1502 1501 1499 1497 1496 1495 1493 1491 1489 1487 1484 1481 1478 1473 1468 1464 1461 1458 1454 1451 1449 1446 1444 1443 1442 1442 1440 1440 1441 1441 1441 1442 1444 1445 1447 1448 1449 1451 1452 1454 1456 1458 1459 1461 1463 1465 1468 1470 1472 1475 1477
1530 1530 1530 1529 1528 1528 1528 1527 1527 1526 1524 1523 1522 1521 1520 1519 1519 1518 1517 1516 1515 1514 1513 1513 1512 1510 1509 1508 1506 1505 1504 1503 1502 1500 1499 1498 1496 1494 1493 1492 1490 1488 1486 1484 1482 1479 1475 1471 1466 1462 1458 1455 1452 1449 1446 1443 1441 1439 1438 1437 1436 1436 1437 1437 1436 1437 1439 1441 1443 1443 1444 1446 1448 1450 1451 1453 1455 1457 1459 1460 1463 1465 1467 1470 1472
1528 1527 1527 1526 1526 1526 1526 1525 1525 1524 1523 1522 1520 1519 1519 1517 1516 1515 1514 1513 1513 1512 1511 1510 1509 1508 1507 1505 1504 1502 1501 1500 1499 1497 1496 1495 1493 1492 1490 1489 1487 1485 1484 1481 1479 1476 1473 1468 1464 1460 1456 1452 1448 1445 1442 1439 1437 1435 1434 1433 1432 1432 1433 1433 1432 1432 1434 1437 1438 1438 1439 1441 1443 1445 1446 1448 1451 1453 1454 1456 1459 1461 1464 1466 1468
1525 1524 1524 1524 1523 1523 1523 1523 1523 1522 1521 1520 1519 1518 1517 1516 1514 1513 1512 1511 1510 1509 1509 1507 1506 1505 1504 1503 1502 1500 1499 1497 1495 1494 1492 1491 1490 1488 1487 1485 1484 1483 1481 1479 1476 1473 1470 1465 1461 1457 1452 1448 1444 1441 1438 1436 1433 1431 1429 1429 1428 1428 1428 1428 1428 1428 1429 1433 1435 1434 1435 1437 1439 1440 1441 1443 1446 1448 1450 1453 1455 1458 1460 1462 1465
1522 1522 1522 1521 1521 1521 1521 1520 1520 1519 1519 1518 1517 1516 1515 1513 1512 1511 1510 1509 1508 1507 1506 1505 1504 1503 1502 1501 1499 1498 1497 1494 1492 1490 1489 1487 1486 1485 1484 1482 1481 1480 1478 1476 1474 1471 1467 1462 1457 1453 1449 1444 1440 1435 1433 1432 1429 1426 1424 1424 1424 1423 1423 1423 1423 1424 1426 1429 1431 1431 1431 1433 1435 1437 1437 1439 1442 1444 1446 1449 1451 1454 1456 1458 1461
1520 1520 1519 1519 1519 1519 1518 1518 1517 1516 1516 1515 1514 1513 1512 1511 1510 1508 1507 1506 1505 1504 1503 1502 1501 1500 1499 1498 1497 1495 1494 1492 1490 1488 1486 1485 1483 1482 1481 1479 1478 1476 1474 1472 1470 1467 1463 1459 1454 1449 1444 1440 1435 1429 1426 1425 1423 1421 1419 1418 1418 1418 1419 1419 1420 1421 1423 1424 1427 1428 1427 1429 1432 1433 1433 1435 1438 1440 1442 1444 1447 1450 1452 1455 1457
1518 1517 1517 1517 1516 1516 1516 1515 1515 1514 1513 1512 1511 1510 1509 1508 1507 1506 1504 1503 1502 1501 1500 1499 1498 1498 1497 1496 1494 1493 1492 1490 1489 1487 1484 1482 1481 1479 1478 1476 1474 1472 1470 1468 1466 1462 1459 1455 1450 1444 1438 1433 1428 1423 1418 1416 1415 1413 1412 1412 1413 1413 1414 1414 1415 1416 1417 1419 1422 1424 1423 1425 1428 1429 1429 1431 1434 1436 1438 1440 1443 1445 1448 1451 1453
1516 1515 1515 1514 1514 1514 1514 1513 1512 1511 1510 1509 1507 1506 1505 1504 1504 1503 1502 1500 1499 1498 1497 1496 1496 1495 1494 1493 1492 1490 1489 1487 1486 1484 1482 1480 1478 1476 1474 1472 1470 1468 1465 1464 1462 1458 1455 1451 1446 1440 1433 1426 1420 1414 1409 1407 1404 1404 1405 1405 1406 1407 1409 1409 1408 1409 1412 1414 1416 1418 1419 1421 1424 1425 1426 1429 1431 1432 1434 1436 1438 1441 1444 1447 1450
1513 1513 1513 1512 1512 1511 1511 1510 1509 1508 1507 1505 1504 1503 1502 1500 1500 1499 1499 1498 1497 1496 1494 1493 1493 1492 1491 1491 1489 1488 1486 1485 1483 1482 1480 1478 1476 1474 1471 1468 1466 1464 1461 1460 1457 1454 1451 1447 1441 1434 1427 1419 1411 1404 1399 1396 1393 1395 1397 1396 1396 1400 1403 1403 1403 1404 1407 1409 1411 1414 1415 1417 1420 1422 1424 1426 1428 1429 1430 1432 1435 1437 1440 1443 1446
1511 1511 1510 1510 1510 1509 1509 1508 1506 1505 1503 1502 1501 1500 1499 1497 1496 1496 1495 1495 1494 1493 1491 1491 1490 1489 1489 1488 1487 1486 1484 1482 1481 1479 1477 1475 1473 1471 1469 1465 1463 1460 1458 1455 1452 1449 1445 1440 1434 1428 1420 1412 1403 1395 1389 1385 1383 1385 1386 1385 1388 1393 1396 1397 1398 1400 1403 1405 1406 1409 1411 1413 1416 1419 1421 1423 1424 1425 1426 1428 1431 1433 1436 1439 1442
1508 1508 1508 1508 1508 1507 1506 1504 1503 1502 1501 1499 1498 1497 1495 1494 1493 1493 1493 1492 1491 1490 1489 1488 1487 1487 1486 1485 1484 1483 1481 1480 1479 1477 1475 1473 1471 1469 1466 1463 1460 1457 1454 1452 1448 1444 1439 1433 1427 1420 1412 1404 1396 1387 1381 1376 1374 1375 1376 1377 1381 1386 1388 1391 1394 1397 1398 1399 1402 1405 1407 1409 1412 1415 1418 1420 1421 1421 1422 1424 1427 1429 1432 1435 1438